Latest Weather Observations for Fawkner Beacon

IDV60801

Issued at 4:02 pm EDT Sunday 26 February 2017 (issued every 30 minutes, with the page automatically refreshed every 10 minutes)

About weather observations | Map of weather stations | Latest weather observations for VIC | Other Formats
Station Details ID: 086376 Name: FAWKNER BEACON Lat: -37.91 Lon: 144.93 Height: 17.0 m
Data from the previous 72 hours. | See also: Recent months for locations in Victoria
Date/Time
EDT
Temp
°C
App
Temp
°C
Dew
Point
°C
Rel
Hum
%
Delta-T
°C
Wind Press
QNH
hPa
Press
MSL
hPa
Rain since
9am
mm
Dir  Spd
km/h
Gust
km/h
Spd
kts
Gust
kts
26/04:00pm - - - - - S 26 28 14 15 - - -
26/03:30pm - - - - - S 24 28 13 15 - - -
26/03:00pm - - - - - S 24 26 13 14 - - -
26/02:30pm - - - - - S 20 22 11 12 - - -
26/02:00pm - - - - - S 13 17 7 9 - - -
26/01:30pm - - - - - S 11 13 6 7 - - -
26/01:00pm - - - - - SSW 11 13 6 7 - - -
26/12:30pm - - - - - SSW 11 13 6 7 - - -
26/12:00pm - - - - - S 11 13 6 7 - - -
26/11:30am - - - - - SSE 7 9 4 5 - - -
26/11:00am - - - - - CALM 0 7 0 4 - - -
26/10:30am - - - - - N 4 6 2 3 - - -
26/10:00am - - - - - N 7 9 4 5 - - -
26/09:30am - - - - - N 7 9 4 5 - - -
26/09:00am - - - - - NNE 11 13 6 7 - - -
26/08:30am - - - - - N 11 15 6 8 - - -
26/08:00am - - - - - NNE 13 15 7 8 - - -
26/07:30am - - - - - NE 13 15 7 8 - - -
26/07:00am - - - - - ENE 15 17 8 9 - - -
26/06:30am - - - - - E 17 20 9 11 - - -
26/06:00am - - - - - ENE 17 22 9 12 - - -
26/05:30am - - - - - E 20 24 11 13 - - -
26/05:00am - - - - - E 20 26 11 14 - - -
26/04:30am - - - - - ENE 26 33 14 18 - - -
26/04:00am - - - - - E 32 39 17 21 - - -
26/03:30am - - - - - E 41 48 22 26 - - -
26/03:00am - - - - - ESE 41 48 22 26 - - -
26/02:30am - - - - - ESE 43 48 23 26 - - -
26/02:00am - - - - - ESE 43 50 23 27 - - -
26/01:30am - - - - - ESE 46 52 25 28 - - -
26/01:00am - - - - - ESE 44 54 24 29 - - -
26/12:30am - - - - - ESE 41 50 22 27 - - -
26/12:00am - - - - - ESE 44 52 24 28 - - -
 
Date/Time
EDT
Temp
°C
App
Temp
°C
Dew
Point
°C
Rel
Hum
%
Delta-T
°C
Wind Press
QNH
hPa
Press
MSL
hPa
Rain since
9am
mm
Dir  Spd
km/h
Gust
km/h
Spd
kts
Gust
kts
25/11:30pm - - - - - ESE 43 48 23 26 - - -
25/11:00pm - - - - - ESE 43 50 23 27 - - -
25/10:30pm - - - - - ESE 41 50 22 27 - - -
25/10:00pm - - - - - SE 35 43 19 23 - - -
25/09:59pm - - - - - SE 33 43 18 23 - - -
25/09:30pm - - - - - SSE 32 39 17 21 - - -
25/09:00pm - - - - - SSE 30 35 16 19 - - -
25/08:30pm - - - - - SSE 28 33 15 18 - - -
25/08:00pm - - - - - S 28 33 15 18 - - -
25/07:30pm - - - - - S 30 35 16 19 - - -
25/07:00pm - - - - - SSE 30 35 16 19 - - -
25/06:30pm - - - - - S 35 43 19 23 - - -
25/06:00pm - - - - - SSW 37 44 20 24 - - -
25/05:30pm - - - - - SSW 39 44 21 24 - - -
25/05:00pm - - - - - SSW 39 46 21 25 - - -
25/04:30pm - - - - - SSW 39 44 21 24 - - -
25/04:00pm - - - - - SSW 35 43 19 23 - - -
25/03:30pm - - - - - SSW 33 41 18 22 - - -
25/03:00pm - - - - - SSW 30 39 16 21 - - -
25/02:30pm - - - - - SSW 26 32 14 17 - - -
25/02:00pm - - - - - SSW 28 33 15 18 - - -
25/01:30pm - - - - - SSW 28 33 15 18 - - -
25/01:00pm - - - - - S 26 32 14 17 - - -
25/12:30pm - - - - - S 24 30 13 16 - - -
25/12:00pm - - - - - S 28 35 15 19 - - -
25/11:30am - - - - - SSE 26 33 14 18 - - -
25/11:00am - - - - - SSE 20 26 11 14 - - -
25/10:30am - - - - - SE 24 32 13 17 - - -
25/10:00am - - - - - SE 28 39 15 21 - - -
25/09:30am - - - - - SE 28 35 15 19 - - -
25/09:00am - - - - - SE 26 35 14 19 - - -
25/08:30am - - - - - SE 28 39 15 21 - - -
25/08:00am - - - - - SE 28 33 15 18 - - -
25/07:30am - - - - - SE 28 35 15 19 - - -
25/07:00am - - - - - SE 26 33 14 18 - - -
25/06:30am - - - - - SE 30 39 16 21 - - -
25/06:00am - - - - - SE 30 35 16 19 - - -
25/05:30am - - - - - SSE 30 41 16 22 - - -
25/05:00am - - - - - SE 32 39 17 21 - - -
25/04:30am - - - - - SSE 32 39 17 21 - - -
25/04:00am - - - - - SSE 32 41 17 22 - - -
25/03:30am - - - - - SSE 32 39 17 21 - - -
25/03:00am - - - - - SSE 35 41 19 22 - - -
25/02:30am - - - - - SSE 33 41 18 22 - - -
25/02:00am - - - - - SSE 30 39 16 21 - - -
25/01:30am - - - - - SE 24 32 13 17 - - -
25/01:00am - - - - - SSE 17 22 9 12 - - -
25/12:30am - - - - - SSE 24 30 13 16 - - -
25/12:00am - - - - - SSE 26 30 14 16 - - -
 
Date/Time
EDT
Temp
°C
App
Temp
°C
Dew
Point
°C
Rel
Hum
%
Delta-T
°C
Wind Press
QNH
hPa
Press
MSL
hPa
Rain since
9am
mm
Dir  Spd
km/h
Gust
km/h
Spd
kts
Gust
kts
24/11:30pm - - - - - SSE 24 30 13 16 - - -
24/11:00pm - - - - - SSE 26 32 14 17 - - -
24/10:30pm - - - - - SSE 28 33 15 18 - - -
24/10:00pm - - - - - S 24 30 13 16 - - -
24/09:30pm - - - - - SSE 30 33 16 18 - - -
24/09:00pm - - - - - S 26 33 14 18 - - -
24/08:30pm - - - - - S 30 35 16 19 - - -
24/08:00pm - - - - - S 30 39 16 21 - - -
24/07:30pm - - - - - S 28 33 15 18 - - -
24/07:00pm - - - - - S 26 33 14 18 - - -
24/06:30pm - - - - - S 24 30 13 16 - - -
24/06:00pm - - - - - S 26 30 14 16 - - -
24/05:30pm - - - - - S 28 35 15 19 - - -
24/05:00pm - - - - - S 28 35 15 19 - - -
24/04:30pm - - - - - S 30 33 16 18 - - -
24/04:00pm - - - - - SSE 28 32 15 17 - - -
24/03:30pm - - - - - S 30 35 16 19 - - -
24/03:00pm - - - - - S 20 26 11 14 - - -
24/02:30pm - - - - - S 24 32 13 17 - - -
24/02:00pm - - - - - S 24 32 13 17 - - -
24/01:30pm - - - - - S 20 28 11 15 - - -
24/01:00pm - - - - - S 28 32 15 17 - - -
24/12:30pm - - - - - S 28 33 15 18 - - -
24/12:00pm - - - - - S 30 39 16 21 - - -
24/11:30am - - - - - S 28 35 15 19 - - -
24/11:00am - - - - - S 28 32 15 17 - - -
24/10:30am - - - - - SSW 26 33 14 18 - - -
24/10:00am - - - - - SSW 24 28 13 15 - - -
24/09:30am - - - - - S 24 30 13 16 - - -
24/09:00am - - - - - S 26 32 14 17 - - -
24/08:30am - - - - - SSW 26 30 14 16 - - -
24/08:00am - - - - - SSW 28 33 15 18 - - -
24/07:30am - - - - - S 28 33 15 18 - - -
24/07:00am - - - - - SSW 26 33 14 18 - - -
24/06:30am - - - - - S 26 32 14 17 - - -
24/06:00am - - - - - S 28 33 15 18 - - -
24/05:30am - - - - - SSW 28 35 15 19 - - -
24/05:00am - - - - - S 24 30 13 16 - - -
24/04:30am - - - - - S 28 33 15 18 - - -
24/04:00am - - - - - S 20 24 11 13 - - -
24/03:30am - - - - - S 30 33 16 18 - - -
24/03:00am - - - - - S 22 28 12 15 - - -
24/02:30am - - - - - S 24 28 13 15 - - -
24/02:00am - - - - - S 28 32 15 17 - - -
24/01:30am - - - - - S 28 35 15 19 - - -
24/01:00am - - - - - SSE 26 30 14 16 - - -
24/12:30am - - - - - SSE 24 28 13 15 - - -
24/12:00am - - - - - S 24 32 13 17 - - -
 
Date/Time
EDT
Temp
°C
App
Temp
°C
Dew
Point
°C
Rel
Hum
%
Delta-T
°C
Wind Press
QNH
hPa
Press
MSL
hPa
Rain since
9am
mm
Dir  Spd
km/h
Gust
km/h
Spd
kts
Gust
kts
23/11:30pm - - - - - S 26 30 14 16 - - -
23/11:00pm - - - - - SSE 26 32 14 17 - - -
23/10:30pm - - - - - SSE 28 32 15 17 - - -
23/10:00pm - - - - - S 28 32 15 17 - - -
23/09:30pm - - - - - S 30 33 16 18 - - -
23/09:00pm - - - - - SSE 32 35 17 19 - - -
23/08:30pm - - - - - S 33 41 18 22 - - -
23/08:00pm - - - - - S 37 43 20 23 - - -
23/07:30pm - - - - - S 39 43 21 23 - - -
23/07:00pm - - - - - S 35 43 19 23 - - -
23/06:30pm - - - - - S 26 32 14 17 - - -
23/06:00pm - - - - - SSE 22 24 12 13 - - -
23/05:30pm - - - - - SSE 22 26 12 14 - - -
23/05:00pm - - - - - SSE 22 26 12 14 - - -
23/04:30pm - - - - - SE 17 22 9 12 - - -

Other Formats:

Comma delimited format used in spreadsheet applications
http://www.bom.gov.au/fwo/IDV60801/IDV60801.95872.axf

JavaScript Object Notation format (JSON) in row-major order
http://www.bom.gov.au/fwo/IDV60801/IDV60801.95872.json